Regional Weather Roundup
Issued by NWS Little Rock, AR

Home | Current Version | Previous Version | Text Only | Print | Product List | Glossary Off
Versions: 1 2 3 4 5 6 7 8 9 10 11 12 13 14 15 16 17 18 19 20 21 22 23 24 25 26 27 28 29 30 31 32 33 34 35 36 37 38 39 40 41 42 43 44 45 46 47 48 49 50

748
ASUS44 KLZK 241405
RWRLZK

WEATHER ROUNDUP FOR ARKANSAS
NATIONAL WEATHER SERVICE LITTLE ROCK AR
900 AM CDT THU MAY 24 2018

NOTE: "FAIR" INDICATES FEW OR NO CLOUDS BELOW 12,000 FEET WITH NO
SIGNIFICANT WEATHER AND/OR OBSTRUCTIONS TO VISIBILITY.

ARZ001-003-010-029-241500-
NORTHWEST ARKANSAS

CITY           SKY/WX    TMP DP  RH WIND       PRES   REMARKS
FAYETTEVILLE   SUNNY     73  66  78 CALM      30.14S
FORT SMITH     CLOUDY    72  69  90 E7        30.11F
HARRISON       MOSUNNY   68  66  93 E3        30.17S
BENTONVILLE    SUNNY     74  65  73 S3        30.16S
ROGERS         SUNNY     73  66  78 SE5       30.15F
SILOAM SPGS    SUNNY     73  67  81 SE5       30.14F
HIGHFILL       SUNNY     73  64  73 SE7       30.14F
SPRINGDALE     MOSUNNY   73  68  83 SE5       30.16S
$$

ARZ004-005-016-241500-
NORTH CENTRAL ARKANSAS

CITY           SKY/WX    TMP DP  RH WIND       PRES   REMARKS
BATESVILLE     CLOUDY    70  70 100 W3        30.15S
FLIPPIN        CLOUDY    68  68 100 CALM      30.17S FOG
MTN HOME       CLOUDY    72  69  90 SE3       30.16R
$$

ARZ040-041-241500-
WEST CENTRAL ARKANSAS

CITY           SKY/WX    TMP DP  RH WIND       PRES   REMARKS
MENA           MOSUNNY   75  73  94 CALM      30.15S
MOUNT IDA      CLOUDY    70  70 100 CALM      30.13R FOG
$$

ARZ009-017-025-026-028-241500-
NORTHEAST ARKANSAS

CITY           SKY/WX    TMP DP  RH WIND       PRES   REMARKS
CORNING        FAIR      77  70  78 N3        30.14S
JONESBORO      CLOUDY    73  73 100 N3        30.13R
NEWPORT        FAIR      74  71  91 NE5       30.13F
WALNUT RIDGE   LGT RAIN  73  70  90 NE10      30.13F
BLYTHEVILLE    FAIR      80  68  66 SE5       30.14R
NW BLYTHEVILLE MOSUNNY   79  68  69 CALM      30.13S
$$

ARZ022-023-033-042-044-241500-
CENTRAL ARKANSAS

CITY           SKY/WX    TMP DP  RH WIND       PRES   REMARKS
LITTLE ROCK    CLOUDY    73  72  96 NE6       30.14R FOG
N LITTLE ROCK    N/A     72  72  99 CALM      30.10S
JACKSONVILLE   PTSUNNY   72  72 100 E3        30.13S
CONWAY         CLOUDY    70  70 100 CALM      30.13S FOG
SEARCY         FAIR      75  71  87 CALM      30.15R
HOT SPRINGS    CLOUDY    72  70  93 CALM      30.15R
RUSSELLVILLE   CLOUDY    71  69  93 CALM      30.13S
CLINTON        FAIR      70  66  88 CALM      30.15S
$$

ARZ036-241500-
EAST ARKANSAS

CITY           SKY/WX    TMP DP  RH WIND       PRES   REMARKS
WEST MEMPHIS   FAIR      78  72  81 CALM      30.12S
$$

ARZ050-053-066-070-073-241500-
SOUTHWEST ARKANSAS

CITY           SKY/WX    TMP DP  RH WIND       PRES   REMARKS
ARKADELPHIA    CLOUDY    71  69  93 CALM      30.14S FOG
CAMDEN         FAIR      77  64  65 CALM      30.13R
TEXARKANA      CLOUDY    73  69  87 CALM      30.12S
EL DORADO      CLOUDY    71  70  96 E3        30.14R
DE QUEEN       SUNNY     74  72  93 E6        30.10F
$$

ARZ056-057-069-241500-
SOUTHEAST ARKANSAS

CITY           SKY/WX    TMP DP  RH WIND       PRES   REMARKS
PINE BLUFF     FAIR      74  71  91 NE6       30.13S
STUTTGART      CLOUDY    72  70  93 CALM      30.15R
MONTICELLO     FAIR      78  73  84 VRB3      30.13R

$$






USA.gov is the U.S. government's official web portal to all federal, state and local government web resources and services.